#timestamp,LO_Frequency,Hit,StdDev 
1675893615.5,286047000.8,N
1675893635.3,286046998.5,N
1675893655.2,286046998.7,N
1675893675.0,286046998.8,N
1675893675.9,286046998.8,N
1675893695.8,286046998.5,N
1675893715.6,286046998.6,N
1675893735.4,286046998.2,N
1675893755.3,286046998.5,N
1675893775.1,286046998.3,N
1675893795.9,286047000.5,N
1675893815.7,286047000.6,N
1675893835.5,286046999.0,N
1675893855.4,286046998.6,N
1675893875.2,286046997.6,N
1675893895.0,286046997.8,N
1675893895.9,286046997.8,N
1675893915.8,286046997.3,N
1675893935.6,286046997.4,N
1675893955.5,286046995.8,Y
1675893975.3,286046999.0,P
1675893995.1,286047001.1,P
1675894015.9,286046998.1,N
1675894035.7,286046998.6,N
1675894055.6,286047001.0,N
1675894075.4,286046998.5,N
1675894095.2,286047000.7,N
1675894115.1,286046999.4,N
1675894116.0,286046999.4,N
1675894135.8,286046999.6,N
1675894155.6,286046996.6,Y
1675894175.5,286047000.7,P
1675894195.3,286047000.6,N
1675894215.2,286047002.5,P
1675894235.9,286047001.0,N
1675894255.7,286046998.2,N
1675894275.6,286046998.2,N
1675894295.4,286046998.8,N
1675894315.3,286047000.1,N
1675894335.1,286046998.5,N
1675894336.0,286046998.5,N
1675894355.8,286046993.9,Y
1675894375.7,286046997.7,P
1675894395.5,286046997.3,N
1675894415.3,286046996.9,N
1675894435.2,286046995.3,Y
1675894455.0,286046999.0,P
1675894455.9,286046999.0,N
1675894475.8,286047000.3,N
1675894495.6,286046999.8,N
1675894515.4,286047001.5,N
1675894535.3,286047002.1,N
1675894555.1,286047002.0,N
1675894575.8,286047002.0,N
1675894595.7,286047001.5,N
1675894615.5,286047002.2,N
1675894635.4,286047002.1,N
1675894655.2,286046998.3,N
1675894675.0,286046998.4,N
1675894675.9,286046998.4,N
1675894695.8,286046999.7,N
1675894715.6,286047002.1,N
1675894735.4,286047003.2,N
1675894755.3,286047002.8,N
1675894775.1,286046999.4,N
1675894795.9,286046998.4,N
1675894815.7,286047000.6,N
1675894835.5,286047000.4,N
1675894855.4,286047000.8,N
1675894875.2,286046999.8,N
1675894895.0,286047004.1,N
1675894895.9,286047004.1,N
1675894915.8,286047001.9,N
1675894935.6,286047000.1,N
1675894955.5,286047000.2,N
1675894975.3,286047002.5,N
1675894995.1,286047002.8,N
1675895015.9,286047002.2,N
1675895035.7,286047004.4,N
1675895055.6,286047002.2,N
1675895075.4,286047001.7,N
1675895095.2,286047003.9,N
1675895115.1,286047002.5,N
1675895116.0,286047002.5,N
1675895135.8,286047002.1,N
1675895155.7,286047002.0,N
1675895175.5,286047001.7,N
1675895195.3,286047001.9,N
1675895215.2,286047001.3,N
1675895235.0,286047004.5,N
1675895235.9,286047004.5,N
1675895255.8,286047005.0,Y
1675895275.6,286047001.2,P
1675895295.4,286046999.3,N
1675895315.3,286046999.7,N
1675895335.1,286047002.5,N
1675895355.9,286047000.4,N
1675895375.7,286047001.0,N
1675895395.5,286047000.9,N
1675895415.4,286046997.6,N
1675895435.2,286046997.9,N
1675895455.0,286046998.7,N
1675895455.9,286046998.7,N
1675895475.8,286046999.2,N
1675895495.6,286046998.7,N
1675895515.5,286047001.1,N
1675895535.3,286046999.5,N
1675895555.1,286047000.9,N
1675895575.9,286046998.1,N
1675895595.7,286047002.0,N
1675895615.5,286047001.5,N
1675895635.4,286047000.0,N
1675895655.2,286046999.9,N
1675895675.1,286047000.7,N
1675895676.0,286047000.7,N
1675895695.8,286046996.6,N
1675895715.6,286046995.2,Y
1675895735.5,286046997.0,P
1675895755.3,286047001.2,N
1675895775.1,286046998.2,N
1675895795.9,286047002.3,N
1675895815.7,286047002.8,N
1675895835.6,286047005.7,N
1675895855.4,286047005.0,N
1675895875.2,286047006.0,N
1675895895.1,286047003.1,N
1675895896.0,286047003.1,N
1675895915.8,286047003.3,N
1675895935.6,286047003.3,N
1675895955.5,286047004.1,N
1675895975.3,286047001.6,N
1675895995.2,286047000.6,N
1675896015.9,286046998.6,N
1675896035.7,286046998.5,N
1675896055.6,286046999.9,N
1675896075.4,286046996.6,N
1675896095.3,286046994.1,N
1675896115.1,286046990.9,N
1675896116.0,286046990.9,N
1675896135.8,286046991.0,N
1675896155.7,286046992.0,N
1675896175.5,286046996.2,N
1675896195.3,286046999.2,N
1675896215.2,286046999.6,N
1675896235.0,286046993.7,N
1675896235.9,286046993.7,N
1675896255.8,286046994.9,N
1675896275.6,286046998.9,N
1675896295.4,286047000.9,N
1675896315.3,286047000.5,N
1675896335.1,286047000.9,N
1675896355.9,286046999.8,N
1675896375.7,286047000.3,N
1675896395.5,286046996.9,N
1675896415.4,286046996.5,N
1675896435.2,286047007.3,N
1675896455.1,286047018.8,Y
1675896456.0,286047018.8,P
1675896475.8,286047018.7,N
1675896495.6,286047016.6,N
1675896515.5,286047014.6,N
1675896535.3,286047013.1,N
1675896555.2,286047011.5,N
1675896575.9,286047010.7,N
1675896595.7,286047008.2,N
1675896615.6,286047009.0,N
1675896635.4,286047008.8,N
1675896655.2,286047005.6,N
1675896675.1,286047003.8,N
1675896676.0,286047003.8,N
1675896695.8,286047004.2,N
1675896715.7,286047002.9,N
1675896735.5,286047003.4,N
1675896755.3,286047001.4,N
1675896775.2,286047004.3,N
1675896795.0,286047001.9,N
1675896795.9,286047001.9,N
1675896815.8,286047002.1,N
1675896835.6,286047002.2,N
1675896855.4,286047002.7,N
1675896875.3,286047001.8,N
1675896895.1,286047001.6,N
1675896915.8,286047004.2,N
1675896935.7,286047001.7,N
1675896955.5,286047001.2,N
1675896975.4,286047001.2,N
1675896995.2,286046998.4,N
1675897015.0,286046998.3,N
1675897015.9,286046998.3,N
1675897035.8,286047000.7,N
1675897055.6,286047000.3,N
1675897075.5,286047003.8,N
1675897095.3,286047001.6,N
1675897115.1,286046998.5,N
1675897135.9,286047000.9,N
1675897155.7,286047000.3,N
1675897175.6,286047002.5,N
1675897195.4,286047004.3,N
